Location: Appeville
(49.3218°N, 1.3427°W)
Time: 05:41:30
(UTC+00:00)

Cosmos 2227 Rocket - Pass Details

Date: 08 December 2019
Orbit: 840 x 844 km, 71.0° (Epoch: 22 January)

Event Time Altitude Azimuth Distance (km) Brightness Sun altitude
Exits shadow 05:55:54 23° 316° (NW) 1,718 3.3 -17.2°
Maximum altitude 05:56:05 23° 318° (NW) 1,717 3.3 -17.2°
Drops below altitude 10° 06:00:34 10° 11° (N) 2,475 4.6 -16.5°
Sets 06:03:33 0° 26° (NNE) 3,413 5.5 -16.0°
